Time (hhmmss), Depth12, Depth35, dec_lat, dec_lon, EDO_knt, SSCND, SSTMP, GPS_COG, GPS_SOG, Gyro, Air_Temp, IMET_BPR, HRH, IMET_SWR, Salinity, Wnd_Dir, Wnd_Spd, 
00:00:01, 34.53, 35.48, 45.190951, 13.025971, 1.48 , +39.4626, +08.2571, 034.9, 001.3, 039.4, 4.989, 1031.90, 47.924, -1.2, 38.2430, 94.4, 3.9926, 
00:01:01, 34.71, 35.55, 45.191301, 13.026254, 1.51 , +39.4704, +08.2608, 012.5, 000.9, 038.6, 4.992, 1031.99, 47.217, -1.2, 38.2475, 90.1, 3.9260, 
00:02:01, 34.60, 35.46, 45.191730, 13.026751, 2.71 , +39.4683, +08.2617, 037.2, 003.1, 039.3, 4.981, 1031.93, 46.637, -1.2, 38.2442, 102.2, 3.5293, 
00:03:01, 34.12, 35.17, 45.192743, 13.027825, 5.42 , +39.4698, +08.2580, 035.4, 006.0, 030.6, 4.990, 1031.84, 47.626, -1.3, 38.2499, 103.5, 3.1453, 
00:04:01, 34.71, 35.26, 45.194440, 13.028726, 7.22 , +39.4679, +08.2611, 012.4, 007.5, 011.2, 4.987, 1031.92, 47.536, -1.1, 38.2444, 87.5, 3.9815, 
00:05:01, 34.24, 35.18, 45.196763, 13.029358, 9.36 , +39.4595, +08.2531, 010.4, 009.0, 012.5, 4.995, 1031.93, 47.584, -1.0, 38.2441, 112.2, 6.1697, 
00:06:01, 34.28, 36.24, 45.199425, 13.030133, 10.20, +39.4435, +08.2287, 012.3, 010.6, 012.0, 5.052, 1031.85, 49.130, -0.8, 38.2534, 117.6, 6.5706, 
00:07:01, 34.05, 35.09, 45.202508, 13.030965, 11.85, +39.4370, +08.2247, 010.5, 011.8, 011.5, 5.044, 1031.96, 48.303, -0.6, 38.2507, 117.3, 7.2163, 
00:08:01, 34.23, 35.14, 45.205784, 13.031904, 12.48, +39.4300, +08.2137, 011.3, 012.0, 012.4, 5.028, 1031.82, 48.559, -0.6, 38.2551, 119.8, 8.5507, 
00:09:01, 34.12, 34.97, 45.209070, 13.032873, 12.40, +39.4188, +08.2018, 009.8, 012.3, 012.1, 5.013, 1031.72, 47.325, -0.5, 38.2560, 112.5, 8.4054, 
00:10:01, 33.95, 34.93, 45.212416, 13.033864, 12.63, +39.4209, +08.1974, 013.0, 012.2, 013.7, 5.017, 1031.91, 46.781, -0.4, 38.2630, 114.2, 8.4210, 
00:11:01, 33.69, 37.85, 45.215744, 13.034893, 12.66, +39.4212, +08.1958, 012.2, 012.4, 012.9, 5.028, 1031.81, 46.742, -0.4, 38.2651, 119.1, 8.7460, 
00:12:01, 33.71, 34.77, 45.219076, 13.035903, 12.64, +39.3968, +08.1770, 013.2, 012.4, 012.8, 5.080, 1031.82, 48.931, -0.3, 38.2592, 119.8, 8.9493, 
00:13:01, 34.01, 42.68, 45.222391, 13.036910, 12.62, +39.3794, +08.1574, 013.5, 012.3, 013.5, 5.047, 1031.92, 47.774, -0.4, 38.2617, 117.5, 9.1040, 
00:14:01, 33.87, 34.91, 45.225713, 13.037945, 12.64, +39.3736, +08.1489, 011.8, 012.3, 012.9, 5.035, 1031.86, 47.286, -0.4, 38.2647, 119.0, 8.8991, 
00:15:01, 33.70, 34.75, 45.229036, 13.039000, 12.71, +39.3747, +08.1452, 013.4, 012.4, 013.4, 5.002, 1031.89, 46.402, -0.4, 38.2700, 119.6, 9.5103, 
00:16:01, 34.14, 35.16, 45.232348, 13.040070, 12.76, +39.3744, +08.1361, 014.0, 012.3, 013.3, 5.025, 1031.95, 46.823, -0.4, 38.2796, 122.5, 8.9948, 
00:17:01, 34.20, 35.21, 45.235699, 13.041100, 12.68, +39.3627, +08.1226, 011.4, 012.3, 012.9, 5.013, 1031.89, 47.551, -0.4, 38.2817, 118.8, 9.0712, 
00:18:01, 34.20, 35.29, 45.239015, 13.042148, 12.76, +39.3453, +08.0995, 013.0, 012.3, 012.5, 4.992, 1031.96, 46.567, -0.4, 38.2880, 116.5, 8.9580, 
00:19:01, 34.75, 35.23, 45.242331, 13.043204, 12.92, +39.3556, +08.1006, 013.1, 012.3, 014.3, 4.986, 1031.99, 46.188, -0.5, 38.2980, 120.5, 9.3418, 
00:20:01, 34.25, 35.29, 45.245658, 13.044316, 12.46, +39.3845, +08.1267, 013.3, 012.2, 013.6, 5.016, 1032.00, 46.814, -0.5, 38.3009, 124.1, 9.2034, 
00:21:01, 33.97, 35.04, 45.248973, 13.045378, 11.92, +39.3448, +08.0845, 013.2, 012.3, 013.4, 5.023, 1032.01, 47.205, -0.5, 38.3039, 117.8, 8.6681, 
00:22:01, 33.79, 34.86, 45.252279, 13.046451, 12.54, +39.3231, +08.0659, 012.3, 012.2, 013.7, 4.993, 1031.97, 45.554, -0.5, 38.3007, 118.7, 8.8562, 
00:23:01, 32.96, 34.05, 45.255590, 13.047539, 12.05, +39.3047, +08.0539, 013.0, 012.3, 013.8, 4.989, 1032.06, 45.226, -0.5, 38.2938, 121.4, 8.5969, 
00:24:01, 31.53, 32.58, 45.258880, 13.048631, 12.73, +39.3097, +08.0563, 012.7, 012.3, 014.0, 4.992, 1032.06, 45.701, -0.5, 38.2966, 120.9, 8.6300, 
00:25:01, 31.78, 32.87, 45.262188, 13.049706, 12.45, +39.3084, +08.0547, 011.5, 012.3, 012.8, 5.035, 1031.99, 46.739, -0.5, 38.2970, 117.2, 8.7084, 
00:26:01, 31.86, 32.93, 45.265521, 13.050740, 12.19, +39.3106, +08.0600, 013.4, 012.3, 013.9, 4.987, 1032.01, 45.864, -0.5, 38.2936, 120.7, 8.2669, 
00:27:01, 31.74, 32.74, 45.268836, 13.051855, 12.80, +39.3052, +08.0512, 014.0, 012.2, 014.7, 4.993, 1032.06, 46.943, -0.4, 38.2973, 119.1, 8.3252, 
00:28:01, 31.91, 34.78, 45.272106, 13.052991, 12.10, +39.3028, +08.0510, 013.4, 012.2, 014.0, 4.996, 1032.00, 46.691, -0.5, 38.2949, 116.4, 8.0142, 
00:29:01, 32.28, 33.18, 45.275451, 13.054138, 12.40, +39.3034, +08.0488, 014.1, 012.4, 014.3, 4.965, 1031.99, 46.348, -0.5, 38.2980, 117.3, 7.9381, 
00:30:01, 32.14, 33.17, 45.278818, 13.055215, 12.19, +39.3038, +08.0527, 013.1, 012.3, 012.6, 5.022, 1031.95, 48.931, -0.5, 38.2942, 117.3, 7.7583, 
00:31:01, 32.28, 33.29, 45.282120, 13.056275, 12.09, +39.2997, +08.0488, 014.1, 012.3, 014.2, 4.998, 1032.06, 49.262, -0.5, 38.2940, 118.4, 7.6637, 
00:32:01, 32.47, 33.45, 45.285446, 13.057351, 12.36, +39.2890, +08.0387, 013.6, 012.3, 014.4, 4.987, 1032.03, 50.394, -0.5, 38.2934, 113.4, 7.9690, 
00:33:01, 32.58, 33.65, 45.288818, 13.058453, 12.66, +39.2666, +08.0164, 012.1, 012.3, 013.1, 4.885, 1032.03, 48.775, -0.5, 38.2934, 111.6, 7.5496, 
00:34:01, 32.92, 33.98, 45.292115, 13.059499, 11.98, +39.2689, +08.0165, 012.2, 012.4, 014.0, 4.922, 1032.09, 49.930, -0.6, 38.2958, 113.6, 7.4749, 
00:35:01, 32.83, 33.85, 45.295466, 13.060566, 12.88, +39.2601, +08.0046, 011.6, 012.4, 013.1, 4.864, 1032.02, 49.100, -0.5, 38.2993, 111.7, 7.6284, 
00:36:01, 32.65, 33.67, 45.298763, 13.061618, 12.62, +39.2700, +08.0095, 013.3, 012.3, 014.3, 4.861, 1032.06, 49.295, -0.6, 38.3047, 114.9, 7.8406, 
00:37:01, 32.45, 33.55, 45.302094, 13.062710, 11.68, +39.2767, +08.0104, 012.1, 012.3, 012.8, 4.870, 1032.06, 49.262, -0.6, 38.3110, 115.1, 7.6032, 
00:38:01, 32.72, 33.71, 45.305458, 13.063741, 11.97, +39.2834, +08.0133, 013.0, 012.3, 014.5, 4.837, 1032.06, 48.261, -0.6, 38.3152, 115.8, 7.8618, 
00:39:01, 32.87, 34.00, 45.308773, 13.064809, 11.67, +39.2912, +08.0186, 013.5, 012.4, 013.0, 4.861, 1032.12, 47.749, -0.6, 38.3178, 117.8, 8.0940, 
00:40:01, 32.41, 33.43, 45.312090, 13.065865, 12.75, +39.2975, +08.0241, 014.2, 012.3, 014.0, 4.846, 1032.10, 45.870, -0.5, 38.3187, 120.6, 8.1132, 
00:41:01, 32.31, 33.25, 45.315435, 13.066903, 12.63, +39.2978, +08.0210, 012.3, 012.3, 013.6, 4.861, 1032.09, 47.807, -0.6, 38.3224, 117.3, 8.3318, 
00:42:01, 32.37, 33.41, 45.318734, 13.067983, 12.18, +39.3008, +08.0218, 014.5, 012.3, 014.6, 4.858, 1032.08, 47.539, -0.6, 38.3248, 118.5, 8.0745, 
00:43:01, 32.54, 37.77, 45.322080, 13.069011, 11.90, +39.3058, +08.0249, 013.1, 012.2, 013.0, 4.868, 1032.16, 47.277, -0.5, 38.3268, 115.2, 7.9091, 
00:44:01, 32.74, 33.73, 45.325413, 13.070036, 12.17, +39.3087, +08.0244, 012.9, 012.1, 014.0, 4.918, 1032.18, 49.124, -0.5, 38.3306, 115.5, 8.0700, 
00:45:01, 32.88, 33.87, 45.328655, 13.071121, 11.67, +39.3160, +08.0268, 013.1, 012.3, 013.7, 4.907, 1032.06, 48.240, -0.6, 38.3359, 117.0, 8.2358, 
00:46:01, 32.83, 33.87, 45.331966, 13.072210, 11.80, +39.3119, +08.0234, 014.0, 012.1, 014.6, 4.942, 1032.07, 49.154, -0.5, 38.3359, 115.9, 8.1905, 
00:47:01, 32.64, 33.68, 45.335231, 13.073320, 11.63, +39.3141, +08.0236, 015.6, 012.4, 016.1, 4.897, 1032.11, 48.429, -0.5, 38.3373, 116.2, 8.1226, 
00:48:01, 32.27, 33.39, 45.338508, 13.074440, 11.96, +39.3100, +08.0187, 012.0, 012.2, 013.7, 4.947, 1032.23, 49.614, -0.5, 38.3382, 119.3, 8.3185, 
00:49:01, 31.78, 32.85, 45.341806, 13.075466, 11.84, +39.3100, +08.0131, 013.4, 012.2, 013.6, 4.868, 1032.13, 48.345, -0.5, 38.3444, 115.0, 8.7383, 
00:50:01, 30.62, 31.65, 45.345133, 13.076481, 11.86, +39.3108, +08.0174, 012.8, 012.1, 013.7, 4.870, 1032.13, 48.354, -0.5, 38.3416, 114.1, 8.8334, 
00:51:01, 31.42, 32.38, 45.348438, 13.077504, 11.83, +39.3153, +08.0112, 012.0, 012.3, 013.5, 4.814, 1032.11, 47.828, -0.5, 38.3523, 112.5, 9.1940, 
00:52:01, 31.93, 32.92, 45.351736, 13.078500, 12.00, +39.3108, +08.0108, 014.0, 012.1, 014.8, 4.910, 1032.07, 50.243, -0.5, 38.3478, 116.3, 8.7822, 
00:53:01, 31.82, 32.80, 45.355018, 13.079580, 11.64, +39.3109, +08.0052, 012.9, 012.1, 015.4, 4.847, 1032.10, 49.163, -0.4, 38.3529, 113.0, 9.5254, 
00:54:01, 31.78, 33.47, 45.358256, 13.080653, 12.09, +39.3117, +08.0072, 011.9, 012.2, 013.9, 4.871, 1032.10, 49.136, -0.5, 38.3527, 112.9, 9.5054, 
00:55:01, 31.32, 32.31, 45.361544, 13.081673, 11.79, +39.3125, +07.9979, 013.7, 012.1, 014.7, 4.882, 1032.06, 49.750, -0.5, 38.3638, 114.2, 9.2935, 
00:56:01, 31.49, 32.49, 45.364835, 13.082766, 11.79, +39.3172, +08.0051, 012.3, 012.1, 014.9, 4.796, 1032.15, 47.497, -0.4, 38.3605, 114.0, 10.1498, 
00:57:01, 30.89, 31.90, 45.368099, 13.083830, 11.76, +39.3154, +08.0023, 011.5, 012.1, 013.7, 4.789, 1031.99, 46.958, -0.5, 38.3621, 118.6, 9.4866, 
00:58:01, 30.64, 31.70, 45.371423, 13.084910, 11.61, +39.3236, +08.0111, 012.7, 012.2, 014.6, 4.829, 1032.10, 48.155, -0.5, 38.3643, 119.4, 10.1197, 
00:59:01, 30.10, 31.16, 45.374701, 13.085960, 12.05, +39.3210, +08.0056, 012.1, 012.2, 014.2, 4.799, 1032.12, 46.586, -0.5, 38.3645, 120.4, 10.0613, 
01:00:01, 30.36, 31.22, 45.378006, 13.087026, 11.76, +39.3264, +08.0066, 013.1, 012.3, 014.6, 4.810, 1032.17, 46.977, -0.5, 38.3694, 122.7, 9.9349, 
01:01:01, 29.54, 30.63, 45.381278, 13.088065, 12.13, +39.3234, +08.0028, 014.2, 012.1, 015.4, 4.883, 1032.13, 50.370, -0.4, 38.3692, 122.3, 9.9531, 
01:02:01, 29.16, 30.27, 45.384551, 13.089148, 12.00, +39.3215, +08.0018, 011.9, 012.0, 013.7, 4.895, 1032.07, 49.386, -0.5, 38.3711, 118.0, 10.3708, 
01:03:01, 28.83, 29.86, 45.387786, 13.090180, 12.10, +39.3253, +08.0010, 012.9, 012.0, 015.1, 4.894, 1032.08, 49.079, -0.4, 38.3744, 118.4, 10.4207, 
01:04:01, 28.54, 29.57, 45.391055, 13.091263, 12.16, +39.3182, +07.9906, 013.2, 012.0, 013.8, 4.849, 1032.15, 47.653, -0.4, 38.3781, 116.7, 10.6100, 
01:05:01, 28.50, 29.49, 45.394316, 13.092298, 12.32, +39.3128, +07.9785, 012.2, 012.1, 015.0, 4.880, 1032.11, 49.542, -0.5, 38.3855, 120.6, 10.9382, 
01:06:01, 27.96, 29.05, 45.397583, 13.093381, 11.66, +39.3119, +07.9780, 012.4, 011.9, 014.1, 4.852, 1032.08, 50.439, -0.4, 38.3851, 115.1, 10.7826, 
01:07:01, 27.58, 28.64, 45.400840, 13.094378, 12.03, +39.3078, +07.9716, 011.2, 012.1, 014.7, 4.907, 1032.07, 52.077, -0.3, 38.3876, 114.6, 10.7468, 
01:08:01, 27.27, 28.50, 45.404071, 13.095441, 12.39, +39.3069, +07.9675, 012.1, 011.9, 014.1, 4.825, 1032.10, 50.382, -0.4, 38.3912, 113.2, 10.6918, 
01:09:01, 26.93, 27.85, 45.407318, 13.096448, 12.45, +39.3151, +07.9708, 013.0, 012.0, 015.0, 4.873, 1032.14, 51.011, -0.4, 38.3965, 114.4, 10.5191, 
01:10:01, 26.42, 27.49, 45.410565, 13.097528, 12.24, +39.3165, +07.9712, 013.4, 012.0, 015.6, 4.837, 1031.96, 50.391, -0.4, 38.3976, 115.3, 10.8959, 
01:11:01, 26.02, 27.04, 45.413804, 13.098586, 12.16, +39.3248, +07.9764, 012.3, 011.9, 014.3, 4.816, 1032.13, 49.121, -0.4, 38.4009, 114.6, 10.8449, 
01:12:01, 25.98, 26.99, 45.417045, 13.099603, 12.46, +39.3264, +07.9722, 013.5, 012.0, 015.4, 4.813, 1032.14, 50.210, -0.4, 38.4073, 115.3, 10.2168, 
01:13:01, 25.56, 26.56, 45.420283, 13.100636, 12.39, +39.3354, +07.9780, 012.2, 011.9, 014.2, 4.826, 1031.95, 51.348, -0.4, 38.4107, 111.5, 10.2015, 
01:14:01, 25.48, 26.48, 45.423530, 13.101663, 12.27, +39.3450, +07.9823, 012.8, 011.9, 015.4, 4.768, 1032.06, 50.598, -0.5, 38.4165, 111.6, 9.8654, 
01:15:01, 25.45, 26.44, 45.426748, 13.102700, 12.32, +39.3435, +07.9775, 012.6, 011.9, 014.0, 4.765, 1031.99, 50.887, -0.4, 38.4201, 108.2, 10.6946, 
01:16:01, 26.04, 27.09, 45.429968, 13.103740, 12.13, +39.3378, +07.9685, 015.3, 011.8, 015.6, 4.781, 1032.06, 51.730, -0.4, 38.4238, 110.8, 10.9071, 
01:17:01, 26.40, 27.35, 45.433180, 13.104745, 12.18, +39.3228, +07.9629, 012.9, 011.8, 013.8, 4.745, 1032.07, 51.378, -0.4, 38.4136, 108.2, 10.3121, 
01:18:01, 25.91, 27.08, 45.436398, 13.105800, 12.26, +39.3014, +07.9485, 013.9, 011.8, 015.2, 4.832, 1031.98, 53.421, -0.4, 38.4061, 108.3, 10.5446, 
01:19:01, 25.92, 26.82, 45.439610, 13.106801, 12.19, +39.2823, +07.9314, 013.0, 011.9, 015.4, 4.747, 1032.10, 50.406, -0.4, 38.4040, 111.3, 11.1648, 
01:20:01, 25.35, 26.47, 45.442788, 13.107920, 12.46, +39.2906, +07.9453, 012.6, 011.7, 015.0, 4.796, 1032.00, 52.010, -0.4, 38.3978, 115.8, 11.5850, 
01:21:01, 25.88, 26.62, 45.445976, 13.108981, 12.02, +39.2883, +07.9403, 013.5, 011.8, 015.5, 4.753, 1031.97, 51.920, -0.4, 38.4008, 109.1, 11.9128, 
01:22:01, 26.72, 27.89, 45.449141, 13.109965, 12.26, +39.3470, +08.0122, 011.8, 011.6, 014.7, 4.777, 1032.07, 52.245, -0.4, 38.3857, 114.0, 12.0972, 
01:23:01, 26.98, 28.02, 45.452335, 13.111018, 12.01, +39.3907, +08.0589, 011.7, 011.9, 014.2, 4.703, 1031.92, 51.077, -0.4, 38.3820, 114.7, 12.6022, 
01:24:01, 25.81, 26.86, 45.455540, 13.111968, 12.07, +39.4012, +08.0722, 013.6, 011.8, 015.4, 4.673, 1031.92, 51.465, -0.5, 38.3788, 114.8, 12.8614, 
01:25:01, 25.14, 26.14, 45.458726, 13.112996, 12.16, +39.4026, +08.0784, 012.7, 011.8, 015.2, 4.712, 1031.95, 52.095, -0.4, 38.3735, 115.2, 12.6611, 
01:26:01, 25.56, 26.56, 45.461905, 13.114010, 12.13, +39.3961, +08.0601, 013.4, 011.8, 015.9, 4.674, 1031.92, 50.899, -0.4, 38.3866, 116.1, 13.0621, 
01:27:01, 25.80, 26.79, 45.465158, 13.114860, 12.30, +39.3666, +08.0255, 006.2, 011.9, 008.3, 4.694, 1031.87, 51.176, -0.4, 38.3925, 106.5, 12.7964, 
01:28:01, 26.47, 27.33, 45.468010, 13.115260, 9.43 , +39.3625, +08.0222, 009.1, 007.3, 017.7, 4.644, 1032.03, 50.400, -0.4, 38.3916, 111.5, 13.1972, 
01:29:01, 27.12, 28.01, 45.469419, 13.115908, 4.64 , +39.3574, +08.0276, 022.4, 003.9, 028.0, 4.662, 1032.10, 51.248, -0.4, 38.3801, 117.1, 11.5576, 
01:30:01, 27.27, 28.26, 45.470231, 13.116301, 2.54 , +39.4157, +08.0979, 031.5, 002.1, 050.7, 4.739, 1032.08, 53.795, -0.4, 38.3664, 125.5, 9.6584, 
01:31:01, 26.98, 28.01, 45.470570, 13.116615, 1.02 , +39.4649, +08.1526, 026.6, 000.8, 050.4, 4.661, 1031.96, 51.095, -0.6, 38.3599, 109.8, 9.6765, 
01:32:01, 27.41, 28.24, 45.470844, 13.116820, 1.17 , +39.4833, +08.1726, 035.9, 001.4, 062.0, 4.623, 1032.05, 51.212, -0.6, 38.3579, 116.4, 8.6078, 
01:33:01, 27.48, 28.40, 45.471088, 13.117268, 1.45 , +39.5027, +08.1928, 074.1, 001.5, 070.3, 4.689, 1032.04, 52.248, -0.7, 38.3569, 118.2, 7.9053, 
01:34:01, 27.34, 28.30, 45.471205, 13.117786, 1.45 , +39.5066, +08.1954, 072.1, 001.3, 070.6, 4.623, 1032.02, 50.508, -0.7, 38.3582, 100.2, 7.8179, 
01:35:01, 27.30, 28.35, 45.471313, 13.118271, 1.16 , +39.5160, +08.2045, 082.4, 001.3, 071.0, 4.670, 1032.02, 51.703, -0.7, 38.3585, 103.5, 7.7350, 
01:36:01, 26.99, 28.06, 45.471380, 13.118823, 1.40 , +39.5163, +08.2037, 066.8, 001.7, 071.8, 4.686, 1032.03, 51.929, -0.7, 38.3597, 98.2, 7.4494, 
01:37:01, 26.97, 28.08, 45.471333, 13.119378, 1.61 , +39.5234, +08.2151, 128.1, 001.8, 114.7, 4.748, 1032.04, 53.463, -0.6, 38.3549, 134.0, 7.1681, 
01:38:01, 26.73, 28.02, 45.470781, 13.119881, 2.44 , +39.5062, +08.1979, 165.7, 003.2, 153.5, 4.680, 1031.94, 52.733, -0.7, 38.3551, 132.7, 6.7923, 
01:39:01, 26.85, 00.00, 45.469968, 13.119863, 3.26 , +39.4815, +08.1714, 195.2, 003.5, 190.0, 4.695, 1032.08, 53.288, -0.6, 38.3573, 127.3, 7.5573, 
01:40:01, 26.78, 27.83, 45.469133, 13.119170, 3.87 , +39.4118, +08.1012, 222.8, 003.9, 217.7, 4.644, 1032.02, 52.402, -0.6, 38.3585, 118.6, 6.9905, 
01:41:01, 26.64, 27.69, 45.468353, 13.118243, 3.48 , +39.3518, +08.0355, 214.4, 004.4, 209.1, 4.700, 1032.05, 54.057, -0.7, 38.3653, 77.9, 7.8713, 
01:42:01, 26.25, 27.33, 45.466943, 13.116965, 6.96 , +39.3507, +08.0180, 206.4, 007.6, 202.0, 4.727, 1032.11, 54.981, -0.7, 38.3834, 70.7, 9.0850, 
01:43:01, 25.84, 26.85, 45.464838, 13.115676, 8.71 , +39.3575, +08.0170, 198.9, 008.0, 196.5, 4.784, 1032.18, 55.812, -0.7, 38.3919, 73.9, 7.6777, 
01:44:01, 25.73, 26.70, 45.462950, 13.114695, 7.25 , +39.3489, +08.0079, 201.5, 006.9, 195.1, 4.638, 1032.17, 51.640, -0.7, 38.3925, 95.0, 6.9476, 
01:45:01, 25.12, 26.17, 45.461028, 13.113928, 7.26 , +39.3776, +08.0432, 192.2, 007.2, 189.8, 4.674, 1032.14, 52.339, -0.7, 38.3850, 85.9, 6.6316, 
01:46:01, 25.35, 26.31, 45.459060, 13.113225, 7.34 , +39.3870, +08.0571, 196.8, 007.3, 191.7, 4.620, 1032.10, 51.670, -0.7, 38.3800, 92.5, 6.4206, 
01:47:01, 25.60, 26.49, 45.457086, 13.112475, 7.80 , +39.3989, +08.0679, 192.4, 007.5, 192.6, 4.613, 1032.13, 50.944, -0.6, 38.3811, 94.1, 7.0797, 
01:48:01, 26.49, 27.46, 45.455095, 13.111650, 7.80 , +39.3870, +08.0601, 196.4, 007.4, 193.4, 4.665, 1032.04, 52.821, -0.6, 38.3767, 85.9, 6.5494, 
01:49:01, 27.10, 28.11, 45.453075, 13.110815, 7.66 , +39.3717, +08.0436, 197.2, 007.4, 192.5, 4.584, 1032.11, 52.450, -0.5, 38.3781, 87.4, 6.9316, 
01:50:01, 26.95, 27.93, 45.451031, 13.110130, 8.05 , +39.3665, +08.0367, 192.1, 007.5, 190.4, 4.515, 1032.07, 52.257, -0.6, 38.3800, 85.0, 7.4773, 
01:51:01, 26.79, 27.85, 45.448968, 13.109443, 7.95 , +39.3610, +08.0290, 192.4, 007.8, 191.0, 4.587, 1031.96, 54.308, -0.6, 38.3825, 86.2, 7.2602, 
01:52:01, 26.37, 27.58, 45.446886, 13.108733, 8.09 , +39.3332, +08.0045, 190.7, 007.7, 191.9, 4.580, 1032.07, 53.379, -0.5, 38.3791, 86.0, 6.6697, 
01:53:01, 25.78, 26.78, 45.444845, 13.108061, 7.56 , +39.2888, +07.9471, 191.8, 007.5, 188.7, 4.628, 1032.19, 54.118, -0.6, 38.3939, 86.8, 5.8759, 
01:54:01, 25.61, 26.62, 45.442790, 13.107488, 7.76 , +39.2858, +07.9413, 193.6, 007.4, 190.2, 4.560, 1032.08, 52.610, -0.6, 38.3970, 93.4, 6.6823, 
01:55:01, 26.07, 27.02, 45.440741, 13.106878, 8.02 , +39.2843, +07.9422, 193.4, 007.4, 189.9, 4.536, 1032.16, 52.519, -0.6, 38.3943, 85.0, 6.4037, 
01:56:01, 25.46, 26.42, 45.438700, 13.106278, 7.90 , +39.2720, +07.9295, 194.5, 007.5, 190.0, 4.531, 1032.16, 52.730, -0.6, 38.3949, 86.9, 5.9717, 
01:57:01, 26.79, 27.64, 45.436644, 13.105695, 7.91 , +39.2734, +07.9292, 188.9, 007.7, 189.8, 4.568, 1032.13, 53.309, -0.7, 38.3967, 86.3, 5.7957, 
01:58:01, 26.66, 27.68, 45.434573, 13.105100, 7.85 , +39.2889, +07.9398, 190.9, 007.6, 190.5, 4.553, 1032.03, 52.935, -0.7, 38.4020, 80.6, 6.7741, 
01:59:01, 26.15, 27.12, 45.432521, 13.104485, 7.78 , +39.3026, +07.9483, 188.5, 007.8, 190.8, 4.528, 1032.11, 52.146, -0.6, 38.4076, 84.7, 6.0540, 
02:00:01, 26.09, 27.14, 45.430430, 13.103870, 7.81 , +39.3201, +07.9596, 190.6, 007.6, 190.5, 4.540, 1032.09, 52.541, -0.7, 38.4143, 81.5, 5.1893, 
02:01:01, 25.56, 26.58, 45.428341, 13.103263, 7.98 , +39.3270, +07.9637, 193.6, 007.7, 191.9, 4.628, 1032.13, 54.320, -0.7, 38.4173, 76.6, 5.1395, 
02:02:01, 25.58, 26.57, 45.426275, 13.102608, 7.97 , +39.3308, +07.9653, 190.9, 007.8, 191.1, 4.577, 1032.08, 53.071, -0.8, 38.4197, 73.1, 5.0711, 
02:03:01, 25.66, 26.60, 45.424211, 13.102005, 7.64 , +39.3378, +07.9769, 190.6, 007.5, 190.2, 4.656, 1032.10, 55.211, -0.7, 38.4145, 79.9, 5.0687, 
02:04:01, 25.60, 26.60, 45.422139, 13.101451, 7.89 , +39.3316, +07.9716, 189.8, 007.6, 190.2, 4.571, 1032.16, 54.202, -0.8, 38.4136, 85.0, 5.0255, 
02:05:01, 25.77, 26.75, 45.420068, 13.100871, 7.88 , +39.3354, +07.9735, 192.4, 007.7, 191.2, 4.584, 1032.14, 54.598, -0.7, 38.4157, 76.0, 4.7089, 
02:06:01, 26.17, 27.05, 45.418026, 13.100276, 7.58 , +39.3274, +07.9728, 192.6, 007.6, 190.7, 4.590, 1032.01, 54.984, -0.8, 38.4077, 72.1, 4.9975, 
02:07:01, 25.97, 26.93, 45.415933, 13.099676, 7.75 , +39.3182, +07.9664, 193.5, 007.5, 192.3, 4.471, 1032.05, 52.378, -1.0, 38.4047, 68.6, 4.7978, 
02:08:01, 26.34, 27.29, 45.413871, 13.099030, 7.57 , +39.3181, +07.9640, 192.7, 007.6, 191.8, 4.539, 1032.08, 53.943, -1.0, 38.4072, 68.8, 4.6552, 
02:09:01, 26.54, 27.52, 45.411843, 13.098410, 7.55 , +39.3109, +07.9669, 193.7, 007.6, 191.7, 4.674, 1032.11, 56.399, -0.9, 38.4025, 80.9, 4.6575, 
02:10:01, 27.19, 28.18, 45.409783, 13.097790, 7.92 , +39.3137, +07.9680, 190.2, 007.7, 191.4, 4.626, 1032.10, 55.350, -0.8, 38.3980, 82.7, 5.1995, 
02:11:01, 26.83, 28.01, 45.407700, 13.097183, 7.89 , +39.3058, +07.9654, 190.5, 007.7, 191.4, 4.546, 1032.05, 53.240, -0.7, 38.3923, 90.2, 4.8698, 
02:12:01, 27.10, 28.05, 45.405610, 13.096583, 7.43 , +39.2974, +07.9652, 191.0, 007.5, 190.8, 4.506, 1032.06, 52.019, -0.8, 38.3884, 89.6, 4.8219, 
02:13:01, 27.81, 28.88, 45.403523, 13.096018, 7.41 , +39.2946, +07.9573, 190.8, 007.6, 190.5, 4.482, 1032.04, 51.763, -0.8, 38.3890, 89.1, 5.4931, 
02:14:01, 27.69, 28.73, 45.401434, 13.095481, 8.02 , +39.2940, +07.9592, 192.8, 007.5, 190.7, 4.474, 1031.99, 51.453, -0.8, 38.3862, 85.1, 5.2958, 
02:15:01, 27.89, 28.84, 45.399343, 13.094885, 7.76 , +39.2928, +07.9605, 190.8, 007.7, 192.5, 4.528, 1032.02, 52.963, -0.8, 38.3835, 88.7, 4.8307, 
02:16:01, 28.18, 29.16, 45.397260, 13.094231, 7.85 , +39.2990, +07.9694, 191.1, 007.5, 191.9, 4.485, 1032.02, 52.363, -0.8, 38.3804, 78.7, 4.6239, 
02:17:01, 28.68, 29.66, 45.395170, 13.093641, 8.01 , +39.2986, +07.9708, 191.6, 007.7, 191.3, 4.513, 1032.08, 53.409, -0.9, 38.3785, 83.8, 4.6646, 
02:18:01, 28.93, 29.93, 45.393085, 13.093038, 7.53 , +39.3024, +07.9757, 192.8, 007.5, 192.0, 4.530, 1032.06, 54.093, -0.8, 38.3772, 81.6, 4.5806, 
02:19:01, 28.82, 29.72, 45.391020, 13.092440, 7.45 , +39.3060, +07.9810, 190.5, 007.4, 191.6, 4.510, 1031.95, 53.894, -0.8, 38.3753, 78.6, 4.8161, 
02:20:01, 28.76, 29.83, 45.388980, 13.091830, 7.52 , +39.3044, +07.9786, 190.6, 007.5, 192.4, 4.501, 1031.98, 53.698, -0.8, 38.3762, 80.3, 4.6318, 
02:21:01, 29.35, 30.24, 45.386946, 13.091191, 7.75 , +39.3111, +07.9851, 194.4, 007.5, 192.0, 4.444, 1032.07, 52.351, -0.8, 38.3764, 88.0, 5.0584, 
02:22:01, 29.14, 30.14, 45.384873, 13.090575, 7.52 , +39.3099, +07.9909, 189.9, 007.4, 192.6, 4.432, 1032.09, 52.086, -0.9, 38.3687, 77.2, 4.3144, 
02:23:01, 29.41, 30.40, 45.382834, 13.089908, 7.71 , +39.3084, +07.9900, 193.8, 007.5, 193.9, 4.525, 1032.01, 54.124, -0.9, 38.3680, 79.1, 4.2575, 
02:24:01, 29.89, 30.86, 45.380828, 13.089216, 7.65 , +39.3089, +07.9937, 193.9, 007.5, 193.3, 4.441, 1032.05, 52.459, -0.9, 38.3645, 84.8, 5.1219, 
02:25:01, 30.13, 31.28, 45.378788, 13.088550, 7.87 , +39.3033, +07.9926, 192.0, 007.5, 192.1, 4.438, 1032.03, 52.405, -0.9, 38.3596, 79.0, 5.0481, 
02:26:01, 30.19, 31.25, 45.376745, 13.087945, 7.39 , +39.3004, +07.9927, 194.4, 007.5, 191.8, 4.432, 1032.01, 52.631, -0.9, 38.3563, 70.5, 4.9980, 
02:27:01, 30.30, 31.38, 45.374696, 13.087331, 7.76 , +39.2996, +07.9909, 195.4, 007.5, 193.0, 4.444, 1032.00, 53.382, -0.9, 38.3574, 71.7, 4.1474, 
02:28:01, 30.65, 31.52, 45.372620, 13.086660, 7.75 , +39.2983, +07.9907, 191.3, 007.6, 192.9, 4.437, 1031.97, 52.664, -1.0, 38.3562, 83.2, 4.4227, 
02:29:01, 30.99, 32.00, 45.370546, 13.086013, 7.76 , +39.3035, +07.9937, 193.4, 007.7, 192.0, 4.467, 1031.99, 53.674, -0.9, 38.3586, 78.3, 4.8864, 
02:30:01, 30.91, 31.91, 45.368396, 13.085556, 7.65 , +39.3053, +07.9940, 189.7, 007.6, 191.6, 4.417, 1031.99, 52.453, -0.8, 38.3603, 79.2, 4.5120, 
02:31:01, 31.40, 32.45, 45.366278, 13.084856, 7.99 , +39.3019, +07.9948, 194.4, 007.7, 192.6, 4.372, 1031.94, 51.020, -0.8, 38.3557, 82.8, 5.1440, 
02:32:01, 31.65, 32.69, 45.364331, 13.084126, 8.15 , +39.3022, +07.9957, 196.2, 007.6, 194.1, 4.410, 1031.93, 51.884, -0.8, 38.3550, 77.7, 5.0076, 
02:33:01, 31.50, 32.51, 45.362168, 13.083638, 7.38 , +39.2961, +07.9902, 182.6, 008.1, 191.7, 4.423, 1031.97, 52.944, -0.8, 38.3544, 78.7, 4.5173, 
02:34:01, 31.38, 32.44, 45.360186, 13.082925, 7.98 , +39.2902, +07.9909, 192.4, 007.5, 192.1, 4.374, 1032.00, 51.459, -0.8, 38.3473, 77.9, 5.0024, 
02:35:01, 31.73, 32.74, 45.358195, 13.082228, 7.62 , +39.2910, +07.9938, 193.6, 007.6, 191.8, 4.386, 1032.04, 51.655, -0.9, 38.3463, 69.0, 5.2546, 
02:36:01, 31.94, 32.91, 45.356151, 13.081595, 7.46 , +39.2949, +07.9953, 194.6, 007.5, 192.7, 4.401, 1031.95, 52.158, -0.9, 38.3475, 68.9, 5.1960, 
02:37:01, 31.95, 33.29, 45.354131, 13.080936, 7.43 , +39.2893, +07.9943, 193.6, 007.6, 191.9, 4.431, 1031.98, 53.195, -0.9, 38.3425, 68.7, 5.2759, 
02:38:01, 31.92, 33.44, 45.352106, 13.080286, 7.64 , +39.2960, +07.9983, 192.9, 007.4, 192.9, 4.476, 1031.93, 54.425, -0.8, 38.3454, 76.4, 4.5927, 